1505844000.03,14428,14.19,73398.3,0.11,-0.45,-0.49,0,*4A
1505844001.22,14429,14.19,73398.3,0.11,-0.49,-0.57,0,*48
1505844002.42,14430,14.19,73396.0,0.13,-0.49,-0.49,0,*4D
1505844003.62,14431,14.19,73398.0,0.11,-0.49,-0.49,0,*4E
1505844004.81,14432,14.19,73396.0,0.11,-0.45,-0.45,0,*4D
1505844006.01,14433,14.19,73396.3,0.11,-0.37,-0.45,0,*49
1505844007.21,14434,14.19,73394.3,0.13,-0.45,-0.45,0,*49
1505844008.41,14435,14.19,73398.3,0.11,-0.45,-0.49,0,*46
1505844009.61,14436,14.19,73396.3,0.11,-0.45,-0.49,0,*45
1505844010.81,14437,14.19,73398.5,0.11,-0.45,-0.49,0,*44
1505844012.0,14438,14.19,73396.8,0.11,-0.49,-0.45,0,*4B
1505844013.2,14439,14.19,73398.8,0.11,-0.49,-0.49,0,*46
1505844014.4,14440,14.19,73392.0,0.13,-0.45,-0.45,0,*4A
1505844015.6,14441,14.19,73396.5,0.11,-0.49,-0.45,0,*45
1505844016.8,14442,14.19,73398.3,0.11,-0.45,-0.49,0,*46
1505844018.0,14443,14.19,73400.8,0.11,-0.45,-0.49,0,*47
1505844019.2,14444,14.19,73400.5,0.13,-0.45,-0.49,0,*42
1505844020.4,14445,14.19,73398.5,0.13,-0.49,-0.49,0,*4F
1505844021.6,14446,14.19,73400.5,0.11,-0.45,-0.45,0,*4E
1505844022.8,14447,14.19,73400.0,0.11,-0.45,-0.45,0,*4F
1505844024.0,14448,14.19,73402.0,0.11,-0.45,-0.49,0,*4C
1505844025.2,14449,14.19,73398.3,0.13,-0.49,-0.45,0,*4F
1505844026.39,14450,14.19,73398.3,0.11,-0.49,-0.49,0,*49
1505844027.59,14451,14.19,73398.5,0.11,-0.49,-0.49,0,*48
1505844028.79,14452,14.19,73398.5,0.11,-0.45,-0.49,0,*47
1505844029.99,14453,14.19,73396.8,0.13,-0.49,-0.57,0,*47
1505844031.18,14454,14.19,73398.3,0.13,-0.61,-0.57,0,*4A
1505844032.38,14455,14.19,73396.0,0.11,-0.57,-0.61,0,*49
1505844033.57,14456,14.19,73400.0,0.11,-0.57,-0.61,0,*4A
1505844034.75,14457,14.19,73396.3,0.11,-0.61,-0.61,0,*4E
1505844035.96,14458,14.19,73396.3,0.11,-0.57,-0.49,0,*4E
1505844037.16,14459,14.19,73398.5,0.11,-0.57,-0.49,0,*4F
1505844038.35,14460,14.19,73398.5,0.11,-0.57,-0.45,0,*49
1505844039.55,14461,14.19,73400.5,0.11,-0.49,-0.49,0,*4B
1505844040.74,14462,14.19,73396.5,0.11,-0.49,-0.45,0,*44
1505844041.94,14463,14.19,73396.5,0.11,-0.49,-0.49,0,*49
1505844043.14,14464,14.19,73400.5,0.11,-0.45,-0.45,0,*4E
1505844044.33,14465,14.19,73400.8,0.11,-0.49,-0.49,0,*4F
1505844045.53,14466,14.19,73398.8,0.11,-0.57,-0.57,0,*4C
1505844046.73,14467,14.19,73398.3,0.11,-0.57,-0.57,0,*4D
1505844047.93,14468,14.19,73400.0,0.13,-0.45,-0.57,0,*43
1505844049.12,14469,14.19,73396.8,0.11,-0.49,-0.45,0,*4F
1505844050.32,14470,14.19,73398.5,0.11,-0.49,-0.57,0,*44
1505844051.52,14471,14.19,73398.5,0.13,-0.49,-0.45,0,*44
1505844052.7,14472,14.25,73406.0,0.11,-0.61,-0.61,0,*49
1505844053.89,14473,14.19,73396.5,0.11,-0.61,-0.61,0,*48
1505844055.07,14474,14.19,73398.3,0.11,-0.61,-0.61,0,*4F
1505844056.26,14475,14.19,73402.5,0.11,-0.61,-0.57,0,*4B
1505844057.46,14476,14.19,73398.8,0.11,-0.57,-0.57,0,*4D
1505844058.65,14477,14.19,73400.8,0.11,-0.61,-0.61,0,*4C
1505844059.84,14478,14.19,73396.5,0.11,-0.57,-0.61,0,*46
1505844061.02,14479,14.19,73400.3,0.11,-0.61,-0.61,0,*42
1505844062.21,14480,14.19,73402.0,0.11,-0.61,-0.57,0,*41
1505844063.4,14481,14.19,73398.0,0.11,-0.49,-0.61,0,*4F
1505844064.6,14482,14.19,73396.8,0.11,-0.57,-0.57,0,*46
1505844065.8,14483,14.19,73400.3,0.11,-0.57,-0.49,0,*48
1505844066.99,14484,14.19,73396.5,0.11,-0.61,-0.49,0,*4A
1505844068.19,14485,14.19,73398.0,0.11,-0.57,-0.57,0,*41
1505844069.39,14486,14.19,73396.5,0.11,-0.49,-0.49,0,*42
1505844070.55,14487,14.19,73400.5,0.09,-0.53,-0.61,0,*7B
1505844071.7,14488,14.19,73400.5,0.09,-0.61,-0.61,0,*75
1505844072.89,14489,14.19,73400.8,0.11,-0.61,-0.61,0,*4D
1505844074.08,14490,14.19,73402.0,0.11,-0.65,-0.61,0,*41
1505844075.27,14491,14.19,73402.5,0.11,-0.65,-0.61,0,*40
1505844076.46,14492,14.19,73396.3,0.11,-0.61,-0.61,0,*47
1505844077.65,14493,14.19,73398.0,0.11,-0.61,-0.57,0,*43
1505844078.84,14494,14.19,73398.8,0.11,-0.61,-0.61,0,*41
1505844080.03,14495,14.19,73398.0,0.11,-0.61,-0.57,0,*45
1505844081.18,14496,14.19,73402.8,0.09,-0.61,-0.61,0,*7A
1505844082.34,14497,14.19,73398.5,0.09,-0.61,-0.61,0,*7B
1505844083.51,14498,14.19,73394.8,0.09,-0.53,-0.49,0,*7F
1505844084.68,14499,14.19,73398.8,0.09,-0.53,-0.49,0,*7E
1505844085.83,14500,14.19,73398.8,0.09,-0.61,-0.61,0,*74
1505844086.99,14501,14.19,73398.5,0.09,-0.61,-0.65,0,*71
1505844088.19,14502,14.19,73402.3,0.11,-0.49,-0.49,0,*4F
1505844089.39,14503,14.19,73398.3,0.11,-0.45,-0.49,0,*42
1505844090.58,14504,14.19,73396.5,0.11,-0.49,-0.45,0,*45
1505844091.77,14505,14.19,73400.5,0.11,-0.49,-0.45,0,*44
1505844092.97,14506,14.19,73398.8,0.11,-0.49,-0.37,0,*42
1505844094.18,14507,14.19,73400.3,0.13,-0.45,-0.49,0,*44
1505844095.37,14508,14.19,73402.3,0.11,-0.49,-0.57,0,*4A
1505844096.57,14509,14.19,73396.8,0.13,-0.61,-0.57,0,*43
1505844097.76,14510,14.19,73400.8,0.11,-0.61,-0.49,0,*46
1505844098.96,14511,14.19,73402.5,0.11,-0.57,-0.57,0,*4D
1505844100.15,14512,14.19,73402.5,0.11,-0.49,-0.45,0,*42
1505844101.35,14513,14.19,73400.8,0.11,-0.45,-0.49,0,*43
1505844102.55,14514,14.19,73402.0,0.11,-0.45,-0.45,0,*48
1505844103.74,14515,14.19,73404.0,0.11,-0.49,-0.45,0,*45
1505844104.94,14516,14.19,73404.3,0.11,-0.45,-0.45,0,*4A
1505844106.13,14517,14.19,73400.0,0.11,-0.45,-0.37,0,*4E
1505844107.33,14518,14.19,73402.3,0.11,-0.45,-0.37,0,*41
1505844108.5,14519,14.19,73396.5,0.09,-0.53,-0.49,0,*77
1505844109.7,14520,14.19,73398.8,0.11,-0.45,-0.45,0,*4F
1505844110.9,14521,14.19,73400.5,0.11,-0.45,-0.57,0,*4D
1505844112.09,14522,14.19,73400.0,0.13,-0.49,-0.57,0,*40
1505844113.29,14523,14.19,73402.3,0.11,-0.49,-0.57,0,*43
1505844114.48,14524,14.19,73400.5,0.11,-0.57,-0.57,0,*4B
1505844115.68,14525,14.19,73402.8,0.11,-0.57,-0.61,0,*4F
1505844116.87,14526,14.19,73402.0,0.11,-0.57,-0.57,0,*49
1505844118.07,14527,14.19,73398.3,0.11,-0.61,-0.49,0,*42
1505844119.27,14528,14.19,73400.8,0.11,-0.45,-0.49,0,*4B
1505844120.46,14529,14.19,73400.0,0.11,-0.49,-0.49,0,*46
1505844121.66,14530,14.19,73402.8,0.11,-0.49,-0.45,0,*42
1505844122.85,14531,14.19,73400.8,0.11,-0.37,-0.45,0,*4A
1505844124.05,14532,14.19,73404.5,0.11,-0.49,-0.45,0,*40
1505844125.25,14533,14.19,73400.5,0.13,-0.49,-0.45,0,*43
1505844126.45,14534,14.19,73400.3,0.13,-0.49,-0.49,0,*48
1505844127.65,14535,14.19,73400.5,0.11,-0.49,-0.49,0,*4B
1505844128.84,14536,14.19,73400.8,0.11,-0.49,-0.49,0,*48
1505844130.04,14537,14.19,73398.5,0.11,-0.57,-0.57,0,*49
1505844131.23,14538,14.19,73400.3,0.11,-0.61,-0.57,0,*43
1505844132.42,14539,14.19,73402.5,0.11,-0.61,-0.61,0,*47
1505844133.61,14540,14.19,73400.8,0.11,-0.61,-0.57,0,*4C
1505844134.79,14541,14.19,73396.8,0.11,-0.61,-0.65,0,*4C
1505844135.99,14542,14.19,73402.5,0.11,-0.57,-0.57,0,*4B
1505844137.18,14543,14.19,73406.0,0.11,-0.57,-0.61,0,*4F
1505844138.38,14544,14.19,73400.8,0.11,-0.57,-0.57,0,*4D
1505844139.58,14545,14.19,73402.0,0.11,-0.49,-0.49,0,*4C
1505844140.78,14546,14.19,73402.5,0.13,-0.57,-0.49,0,*42
1505844141.98,14547,14.19,73404.8,0.11,-0.57,-0.61,0,*4B
1505844143.17,14548,14.19,73400.3,0.13,-0.57,-0.61,0,*46
1505844144.37,14549,14.19,73404.0,0.11,-0.57,-0.57,0,*40
1505844145.57,14550,14.19,73402.5,0.11,-0.57,-0.57,0,*48
1505844146.77,14551,14.19,73402.5,0.11,-0.45,-0.49,0,*45
1505844147.97,14552,14.19,73398.5,0.13,-0.57,-0.49,0,*47
1505844149.16,14553,14.19,73398.8,0.11,-0.61,-0.61,0,*4B
1505844150.36,14554,14.19,73400.5,0.13,-0.57,-0.57,0,*4E
1505844151.55,14555,14.19,73396.0,0.11,-0.49,-0.57,0,*42
1505844152.75,14556,14.19,73394.5,0.11,-0.49,-0.49,0,*4E
1505844153.95,14557,14.19,73396.8,0.11,-0.45,-0.45,0,*4F
1505844155.14,14558,14.19,73394.5,0.11,-0.49,-0.49,0,*40
1505844156.34,14559,14.19,73398.8,0.13,-0.57,-0.61,0,*46
1505844157.54,14560,14.19,73398.8,0.11,-0.57,-0.61,0,*4E
1505844158.72,14561,14.19,73396.3,0.11,-0.61,-0.61,0,*4A
1505844159.91,14562,14.19,73402.0,0.13,-0.61,-0.61,0,*4B
1505844161.1,14563,14.19,73400.5,0.11,-0.61,-0.57,0,*4D
1505844162.29,14564,14.19,73406.0,0.11,-0.61,-0.61,0,*4F
1505844163.45,14565,14.19,73404.0,0.09,-0.65,-0.65,0,*77
1505844164.65,14566,14.19,73406.5,0.11,-0.57,-0.57,0,*4D
1505844165.84,14567,14.19,73400.0,0.11,-0.61,-0.57,0,*49
1505844167.03,14568,14.19,73402.3,0.11,-0.57,-0.57,0,*43
1505844168.23,14569,14.19,73402.0,0.11,-0.49,-0.45,0,*4E
1505844169.42,14570,14.19,73400.3,0.11,-0.49,-0.57,0,*45
1505844170.62,14571,14.19,73402.3,0.11,-0.45,-0.45,0,*4B
1505844171.82,14572,14.19,73400.3,0.13,-0.49,-0.45,0,*46
1505844173.01,14573,14.19,73402.8,0.11,-0.49,-0.57,0,*46
1505844174.21,14574,14.19,73402.3,0.11,-0.49,-0.49,0,*4E
1505844175.41,14575,14.19,73396.5,0.11,-0.57,-0.49,0,*40
1505844176.61,14576,14.19,73396.3,0.11,-0.57,-0.49,0,*43
1505844177.81,14577,14.19,73400.8,0.11,-0.49,-0.49,0,*4D
1505844179.01,14578,14.19,73400.0,0.11,-0.57,-0.49,0,*4D
1505844180.2,14579,14.19,73400.8,0.11,-0.57,-0.45,0,*40
1505844181.4,14580,14.19,73402.5,0.11,-0.57,-0.45,0,*46
1505844182.6,14581,14.19,73400.0,0.11,-0.57,-0.49,0,*4B
1505844183.79,14582,14.19,73406.3,0.11,-0.49,-0.57,0,*48
1505844184.99,14583,14.19,73402.0,0.11,-0.61,-0.57,0,*43
1505844186.18,14584,14.19,73400.8,0.11,-0.57,-0.57,0,*41
1505844187.38,14585,14.19,73400.8,0.11,-0.57,-0.57,0,*40
1505844188.57,14586,14.19,73406.0,0.11,-0.49,-0.49,0,*43
1505844189.77,14587,14.19,73406.5,0.13,-0.49,-0.45,0,*4C
1505844190.97,14588,14.19,73404.5,0.11,-0.49,-0.49,0,*4D
1505844192.17,14589,14.19,73400.0,0.11,-0.49,-0.49,0,*4C
1505844193.37,14590,14.19,73400.5,0.11,-0.57,-0.49,0,*4B
1505844194.56,14591,14.19,73400.5,0.11,-0.61,-0.61,0,*45
1505844195.74,14592,14.19,73402.8,0.11,-0.61,-0.61,0,*46
1505844196.93,14593,14.19,73400.3,0.11,-0.61,-0.57,0,*42
1505844198.13,14594,14.19,73400.5,0.13,-0.57,-0.57,0,*42
1505844199.33,14595,14.19,73402.5,0.11,-0.57,-0.57,0,*41
1505844200.53,14596,14.19,73400.5,0.11,-0.57,-0.49,0,*4D
1505844201.72,14597,14.19,73402.8,0.11,-0.61,-0.57,0,*46
1505844202.92,14598,14.19,73404.8,0.11,-0.57,-0.57,0,*4C
1505844204.11,14599,14.19,73400.8,0.11,-0.49,-0.61,0,*47
1505844205.3,14600,14.19,73400.8,0.11,-0.49,-0.57,0,*41
1505844206.49,14601,14.19,73400.8,0.11,-0.61,-0.61,0,*4F
1505844207.68,14602,14.19,73400.8,0.11,-0.57,-0.57,0,*4C
1505844208.89,14603,14.19,73402.5,0.13,-0.57,-0.49,0,*40
1505844210.08,14604,14.19,73398.5,0.11,-0.61,-0.49,0,*40
1505844211.28,14605,14.19,73402.3,0.11,-0.57,-0.57,0,*4B
1505844212.48,14606,14.19,73402.8,0.13,-0.57,-0.57,0,*4A
1505844213.68,14607,14.19,73402.5,0.11,-0.49,-0.49,0,*49
1505844214.88,14608,14.19,73404.0,0.11,-0.57,-0.49,0,*49
1505844216.08,14609,14.19,73404.0,0.13,-0.49,-0.49,0,*45
1505844217.25,14610,14.19,73402.0,0.09,-0.49,-0.49,0,*76
1505844218.44,14611,14.19,73406.5,0.11,-0.49,-0.57,0,*41
1505844219.64,14612,14.19,73404.0,0.11,-0.49,-0.57,0,*42
1505844220.83,14613,14.19,73410.3,0.11,-0.57,-0.57,0,*4C
1505844222.04,14614,14.19,73404.5,0.13,-0.57,-0.57,0,*49
1505844223.23,14615,14.19,73404.8,0.11,-0.57,-0.45,0,*49
1505844224.43,14616,14.19,73400.5,0.11,-0.45,-0.49,0,*45
1505844225.63,14617,14.19,73400.8,0.11,-0.49,-0.49,0,*48
1505844226.83,14618,14.19,73400.8,0.11,-0.57,-0.49,0,*48
1505844228.03,14619,14.19,73400.3,0.13,-0.57,-0.57,0,*44
1505844229.23,14620,14.19,73402.5,0.13,-0.49,-0.49,0,*4E
1505844230.43,14621,14.19,73404.0,0.11,-0.61,-0.49,0,*47
1505844231.63,14622,14.19,73402.3,0.11,-0.57,-0.57,0,*4E
1505844232.83,14623,14.19,73396.8,0.13,-0.57,-0.57,0,*4D
1505844234.02,14624,14.19,73400.0,0.11,-0.61,-0.57,0,*4D
1505844235.2,14625,14.19,73402.0,0.11,-0.61,-0.61,0,*49
1505844236.39,14626,14.19,73398.5,0.11,-0.61,-0.57,0,*4F
1505844237.58,14627,14.19,73402.8,0.11,-0.61,-0.61,0,*4B
1505844238.77,14628,14.19,73400.0,0.11,-0.61,-0.57,0,*41
1505844239.96,14629,14.19,73400.8,0.13,-0.61,-0.61,0,*47
1505844241.15,14630,14.19,73400.0,0.11,-0.61,-0.61,0,*4D
1505844242.33,14631,14.19,73404.0,0.11,-0.61,-0.61,0,*4C
1505844243.5,14632,14.19,73404.8,0.09,-0.65,-0.65,0,*76
1505844244.69,14633,14.19,73402.3,0.11,-0.49,-0.57,0,*41
1505844245.88,14634,14.19,73402.0,0.11,-0.57,-0.61,0,*4C
1505844247.08,14635,14.19,73400.0,0.13,-0.57,-0.57,0,*4A
1505844248.29,14636,14.19,73400.3,0.13,-0.49,-0.49,0,*49
1505844249.48,14637,14.19,73402.8,0.11,-0.49,-0.49,0,*4A
1505844250.68,14638,14.19,73400.8,0.13,-0.49,-0.45,0,*4B
1505844251.88,14639,14.19,73402.3,0.13,-0.49,-0.45,0,*4A
1505844253.08,14640,14.19,73400.0,0.13,-0.49,-0.45,0,*44
1505844254.28,14641,14.19,73400.5,0.11,-0.57,-0.49,0,*44
1505844255.47,14642,14.19,73402.8,0.11,-0.49,-0.61,0,*42
1505844256.67,14643,14.19,73404.5,0.11,-0.57,-0.57,0,*49
1505844257.87,14644,14.19,73400.3,0.11,-0.45,-0.45,0,*4E
1505844259.07,14645,14.19,73400.0,0.13,-0.49,-0.49,0,*4D
1505844260.26,14646,14.19,73406.8,0.11,-0.61,-0.45,0,*4A
1505844261.47,14647,14.19,73404.3,0.13,-0.57,-0.49,0,*40
1505844262.66,14648,14.19,73400.5,0.11,-0.49,-0.49,0,*42
1505844263.86,14649,14.19,73402.3,0.11,-0.45,-0.49,0,*4F
1505844265.06,14650,14.19,73398.8,0.11,-0.45,-0.49,0,*47
1505844266.26,14651,14.19,73404.8,0.11,-0.45,-0.45,0,*4A
1505844267.46,14652,14.19,73396.5,0.11,-0.49,-0.49,0,*49
1505844268.66,14653,14.19,73400.5,0.13,-0.45,-0.45,0,*4A
1505844269.86,14654,14.19,73400.3,0.11,-0.45,-0.49,0,*43
1505844271.06,14655,14.19,73402.5,0.13,-0.49,-0.49,0,*4C
1505844272.26,14656,14.19,73402.8,0.13,-0.57,-0.57,0,*4F
1505844273.46,14657,14.19,73406.0,0.13,-0.49,-0.57,0,*41
1505844274.67,14658,14.19,73402.0,0.13,-0.57,-0.45,0,*42
1505844275.86,14659,14.19,73402.8,0.11,-0.49,-0.49,0,*42
1505844277.06,14660,14.19,73402.0,0.11,-0.49,-0.45,0,*44
1505844278.26,14661,14.19,73404.0,0.13,-0.49,-0.45,0,*47
1505844279.45,14662,14.19,73400.3,0.11,-0.49,-0.49,0,*4A
1505844280.65,14663,14.19,73402.0,0.11,-0.57,-0.49,0,*44
1505844281.84,14664,14.19,73402.3,0.11,-0.61,-0.61,0,*4C
1505844283.04,14665,14.19,73400.8,0.13,-0.57,-0.57,0,*4F
1505844284.23,14666,14.19,73402.3,0.13,-0.61,-0.61,0,*4C
1505844285.43,14667,14.19,73398.5,0.11,-0.57,-0.61,0,*4A
1505844286.62,14668,14.19,73398.3,0.13,-0.61,-0.61,0,*42
1505844287.81,14669,14.19,73400.0,0.11,-0.61,-0.61,0,*41
1505844288.99,14670,14.19,73398.8,0.11,-0.61,-0.61,0,*49
1505844290.18,14671,14.19,73398.5,0.11,-0.61,-0.61,0,*48
1505844291.36,14672,14.19,73402.8,0.11,-0.61,-0.61,0,*4B
1505844292.56,14673,14.19,73400.0,0.13,-0.61,-0.61,0,*48
1505844293.75,14674,14.19,73402.5,0.11,-0.73,-0.65,0,*4A
1505844294.95,14675,14.19,73402.3,0.11,-0.65,-0.65,0,*4C
1505844296.14,14676,14.19,73396.5,0.13,-0.65,-0.65,0,*4D
1505844297.34,14677,14.19,73398.5,0.11,-0.65,-0.65,0,*4E
1505844298.53,14678,14.19,73402.8,0.11,-0.65,-0.65,0,*41
1505844299.72,14679,14.19,73396.5,0.11,-0.65,-0.65,0,*40
1505844300.91,14680,14.19,73402.0,0.11,-0.65,-0.65,0,*46
1505844302.1,14681,14.19,73400.5,0.11,-0.61,-0.61,0,*47
1505844303.29,14682,14.19,73402.3,0.11,-0.57,-0.61,0,*41
1505844304.49,14683,14.19,73402.8,0.11,-0.57,-0.57,0,*45
1505844305.68,14684,14.19,73400.5,0.11,-0.57,-0.61,0,*47
1505844306.88,14685,14.19,73402.3,0.11,-0.57,-0.57,0,*43
1505844308.04,14686,14.19,73396.8,0.09,-0.65,-0.65,0,*79
1505844309.23,14687,14.19,73398.3,0.11,-0.61,-0.57,0,*44
1505844310.42,14688,14.19,73396.3,0.11,-0.61,-0.57,0,*4B
1505844311.61,14689,14.19,73396.0,0.11,-0.61,-0.61,0,*4F
1505844312.79,14690,14.19,73398.3,0.11,-0.61,-0.61,0,*47
1505844313.99,14691,14.19,73400.8,0.11,-0.65,-0.65,0,*46
1505844315.18,14692,14.19,73396.0,0.11,-0.73,-0.65,0,*42
1505844316.35,14693,14.19,73396.3,0.09,-0.81,-0.77,0,*74
1505844317.52,14694,14.19,73396.8,0.09,-0.77,-0.77,0,*7A
1505844318.72,14695,14.19,73400.5,0.07,-0.69,-0.69,0,*75
1505844319.89,14696,14.19,73396.8,0.09,-0.69,-0.69,0,*78
1505844321.06,14697,14.19,73394.5,0.09,-0.69,-0.77,0,*76
1505844322.22,14698,14.19,73398.3,0.09,-0.77,-0.69,0,*79
1505844323.39,14699,14.19,73396.0,0.09,-0.77,-0.69,0,*78
1505844324.56,14700,14.19,73398.5,0.09,-0.77,-0.69,0,*79
1505844325.72,14701,14.19,73396.5,0.09,-0.69,-0.69,0,*77
1505844326.92,14702,14.19,73398.3,0.07,-0.65,-0.65,0,*7A
1505844328.11,14703,14.19,73398.0,0.07,-0.65,-0.65,0,*7B
1505844329.29,14704,14.19,73396.0,0.07,-0.61,-0.61,0,*7C
1505844330.45,14705,14.19,73396.8,0.09,-0.61,-0.61,0,*73
1505844331.61,14706,14.19,73394.5,0.09,-0.53,-0.65,0,*75
1505844332.78,14707,14.19,73398.3,0.09,-0.65,-0.65,0,*71
1505844333.94,14708,14.19,73396.3,0.09,-0.65,-0.65,0,*7E
1505844335.1,14709,14.19,73400.3,0.09,-0.65,-0.65,0,*7F
1505844336.27,14710,14.19,73398.0,0.09,-0.53,-0.65,0,*72
1505844337.45,14711,14.19,73400.3,0.07,-0.61,-0.61,0,*78
1505844338.64,14712,14.19,73400.3,0.07,-0.61,-0.53,0,*7A
1505844339.83,14713,14.19,73402.3,0.11,-0.49,-0.45,0,*41
1505844341.03,14714,14.19,73398.8,0.07,-0.53,-0.53,0,*7D
1505844342.2,14715,14.19,73400.5,0.09,-0.53,-0.53,0,*72
1505844343.37,14716,14.19,73400.3,0.09,-0.53,-0.49,0,*7A
1505844344.53,14717,14.19,73398.0,0.09,-0.49,-0.53,0,*7B
1505844345.7,14718,14.19,73396.0,0.09,-0.53,-0.53,0,*7F
1505844346.86,14719,14.19,73398.0,0.09,-0.49,-0.53,0,*75
1505844348.02,14720,14.19,73396.0,0.09,-0.49,-0.53,0,*7F
1505844349.19,14721,14.19,73398.5,0.09,-0.53,-0.53,0,*75
1505844350.35,14722,14.19,73398.8,0.09,-0.53,-0.53,0,*76
1505844351.52,14723,14.19,73396.8,0.09,-0.53,-0.53,0,*77
1505844352.68,14724,14.19,73398.5,0.09,-0.53,-0.53,0,*70
1505844353.85,14725,14.19,73400.0,0.09,-0.53,-0.53,0,*71
1505844355.01,14726,14.19,73400.0,0.09,-0.61,-0.53,0,*73
1505844356.19,14727,14.19,73400.8,0.11,-0.61,-0.61,0,*4A
1505844357.39,14728,14.19,73402.0,0.11,-0.57,-0.57,0,*45
1505844358.58,14729,14.19,73398.5,0.11,-0.61,-0.61,0,*44
1505844359.77,14730,14.19,73400.5,0.11,-0.57,-0.57,0,*4C
1505844360.97,14731,14.19,73398.5,0.11,-0.57,-0.57,0,*4D
1505844362.17,14732,14.19,73396.0,0.11,-0.57,-0.57,0,*4E
1505844363.36,14733,14.19,73396.8,0.11,-0.57,-0.61,0,*4A
1505844364.55,14734,14.19,73392.5,0.11,-0.61,-0.57,0,*4D
1505844365.73,14735,14.19,73398.5,0.11,-0.61,-0.61,0,*49
1505844366.92,14736,14.19,73398.5,0.11,-0.61,-0.57,0,*4F
1505844368.11,14737,14.19,73394.3,0.11,-0.61,-0.57,0,*4E
1505844369.31,14738,14.19,73398.5,0.11,-0.49,-0.57,0,*4B
1505844370.46,14739,14.19,73398.8,0.09,-0.61,-0.61,0,*7C
1505844371.66,14740,14.19,73400.5,0.13,-0.61,-0.57,0,*4C
1505844372.86,14741,14.19,73402.0,0.11,-0.57,-0.49,0,*45
1505844374.06,14742,14.19,73398.8,0.11,-0.45,-0.49,0,*45
1505844375.23,14743,14.19,73402.0,0.09,-0.53,-0.49,0,*7A
1505844376.39,14744,14.19,73398.8,0.09,-0.53,-0.53,0,*76
1505844377.56,14745,14.19,73400.8,0.09,-0.53,-0.49,0,*7C
1505844378.73,14746,14.19,73398.3,0.09,-0.53,-0.53,0,*74
1505844379.9,14747,14.19,73400.5,0.09,-0.45,-0.49,0,*79
1505844381.09,14748,14.19,73398.3,0.11,-0.49,-0.45,0,*4F
1505844382.28,14749,14.19,73400.0,0.11,-0.61,-0.57,0,*47
1505844383.48,14750,14.19,73396.8,0.11,-0.57,-0.49,0,*45
1505844384.68,14751,14.19,73398.3,0.11,-0.49,-0.49,0,*4B
1505844385.87,14752,14.19,73402.0,0.11,-0.49,-0.57,0,*47
1505844387.07,14753,14.19,73396.0,0.11,-0.45,-0.57,0,*4A
1505844388.27,14754,14.19,73396.8,0.11,-0.49,-0.49,0,*4E
1505844389.46,14755,14.19,73402.0,0.11,-0.45,-0.49,0,*43
1505844390.66,14756,14.19,73402.0,0.11,-0.45,-0.45,0,*4C
1505844391.86,14757,14.19,73398.5,0.11,-0.49,-0.49,0,*4D
1505844393.05,14758,14.19,73396.0,0.11,-0.49,-0.49,0,*42
1505844394.26,14759,14.19,73392.3,0.13,-0.49,-0.49,0,*41
1505844395.46,14760,14.19,73394.3,0.13,-0.49,-0.49,0,*4B
1505844396.66,14761,14.19,73398.5,0.11,-0.57,-0.49,0,*47
1505844397.86,14762,14.19,73394.5,0.13,-0.57,-0.57,0,*49
1505844399.06,14763,14.19,73396.0,0.11,-0.61,-0.49,0,*40
1505844400.24,14764,14.19,73392.3,0.11,-0.61,-0.61,0,*4D
1505844401.44,14765,14.19,73392.5,0.11,-0.57,-0.61,0,*49
1505844402.62,14766,14.19,73394.3,0.11,-0.61,-0.61,0,*4F
1505844403.81,14767,14.19,73394.3,0.11,-0.61,-0.61,0,*4E
1505844405.0,14768,14.19,73392.3,0.13,-0.61,-0.57,0,*46
1505844406.2,14769,14.19,73394.8,0.11,-0.57,-0.61,0,*45
1505844407.4,14770,14.19,73392.3,0.13,-0.57,-0.61,0,*4F
1505844408.59,14771,14.19,73398.0,0.13,-0.61,-0.61,0,*4B
1505844409.78,14772,14.19,73392.0,0.11,-0.65,-0.61,0,*4E
1505844410.96,14773,14.19,73394.3,0.11,-0.61,-0.61,0,*4B
1505844412.15,14774,14.19,73396.3,0.11,-0.61,-0.61,0,*4C
1505844413.34,14775,14.19,73396.0,0.11,-0.57,-0.61,0,*48
1505844414.54,14776,14.19,73396.3,0.13,-0.65,-0.61,0,*48
1505844415.73,14777,14.19,73394.0,0.11,-0.65,-0.61,0,*4B
1505844416.9,14778,14.19,73396.8,0.09,-0.69,-0.61,0,*71
1505844418.06,14779,14.19,73394.5,0.09,-0.69,-0.69,0,*78
1505844419.25,14780,14.19,73394.3,0.11,-0.65,-0.61,0,*43
1505844420.45,14781,14.19,73396.0,0.11,-0.65,-0.61,0,*42
1505844421.64,14782,14.19,73396.0,0.11,-0.61,-0.57,0,*40
1505844422.8,14783,14.19,73396.8,0.09,-0.61,-0.53,0,*7C
1505844423.99,14784,14.19,73396.0,0.11,-0.61,-0.49,0,*49
1505844425.18,14785,14.19,73398.0,0.13,-0.61,-0.61,0,*40
1505844426.38,14786,14.19,73402.0,0.11,-0.57,-0.57,0,*41
1505844427.58,14787,14.19,73396.8,0.11,-0.57,-0.49,0,*4F
1505844428.78,14788,14.19,73394.5,0.11,-0.57,-0.49,0,*40
1505844429.98,14789,14.19,73398.5,0.11,-0.49,-0.49,0,*4E
1505844431.14,14790,14.19,73394.5,0.09,-0.53,-0.61,0,*7E
1505844432.33,14791,14.19,73394.3,0.11,-0.57,-0.61,0,*42
1505844433.52,14792,14.19,73398.5,0.11,-0.65,-0.61,0,*40
1505844434.72,14793,14.19,73398.5,0.11,-0.57,-0.61,0,*40
1505844435.91,14794,14.19,73398.0,0.11,-0.57,-0.57,0,*42
1505844437.08,14795,14.19,73394.5,0.09,-0.53,-0.53,0,*7A
1505844438.23,14796,14.19,73398.5,0.09,-0.61,-0.61,0,*79
1505844439.39,14797,14.19,73398.8,0.09,-0.61,-0.61,0,*78
1505844440.55,14798,14.19,73398.3,0.09,-0.61,-0.53,0,*76
1505844441.71,14799,14.19,73396.0,0.09,-0.53,-0.61,0,*77
1505844442.87,14800,14.19,73398.3,0.09,-0.61,-0.49,0,*73
1505844444.07,14801,14.19,73398.5,0.11,-0.49,-0.45,0,*4D
1505844445.26,14802,14.19,73400.5,0.11,-0.49,-0.57,0,*4D
1505844446.46,14803,14.19,73396.8,0.11,-0.57,-0.57,0,*43
1505844447.66,14804,14.19,73398.8,0.11,-0.45,-0.49,0,*48
1505844448.85,14805,14.19,73396.0,0.11,-0.45,-0.45,0,*45
1505844450.05,14806,14.19,73392.0,0.11,-0.49,-0.45,0,*4A
1505844451.23,14807,14.19,73392.5,0.11,-0.61,-0.61,0,*47
1505844452.42,14808,14.19,73392.0,0.11,-0.61,-0.61,0,*48
1505844453.61,14809,14.19,73396.5,0.11,-0.57,-0.61,0,*4C
1505844454.81,14810,14.19,73398.5,0.11,-0.57,-0.49,0,*4E
1505844456.0,14811,14.19,73394.3,0.11,-0.61,-0.61,0,*40
1505844457.19,14812,14.19,73394.0,0.11,-0.57,-0.57,0,*43
1505844458.39,14813,14.19,73396.5,0.11,-0.61,-0.57,0,*47
1505844459.58,14814,14.19,73400.0,0.11,-0.57,-0.57,0,*45
1505844460.78,14815,14.19,73390.0,0.11,-0.57,-0.49,0,*4B
1505844461.97,14816,14.19,73394.5,0.11,-0.61,-0.57,0,*42
1505844463.16,14817,14.19,73394.8,0.11,-0.61,-0.57,0,*43
1505844464.35,14818,14.19,73398.8,0.11,-0.61,-0.57,0,*4C
1505844465.54,14819,14.19,73392.8,0.11,-0.61,-0.57,0,*4D
1505844466.74,14820,14.19,73392.3,0.11,-0.57,-0.57,0,*42
1505844467.93,14821,14.19,73398.0,0.13,-0.61,-0.61,0,*41
1505844469.12,14822,14.19,73396.8,0.11,-0.61,-0.61,0,*40
1505844470.28,14823,14.19,73396.0,0.09,-0.65,-0.65,0,*78
1505844471.44,14824,14.19,73392.0,0.09,-0.65,-0.65,0,*7F
1505844472.63,14825,14.19,73396.5,0.11,-0.61,-0.57,0,*42
1505844473.82,14826,14.19,73396.8,0.11,-0.61,-0.61,0,*44
1505844475.01,14827,14.19,73392.8,0.11,-0.57,-0.61,0,*40
1505844476.21,14828,14.19,73396.5,0.11,-0.57,-0.57,0,*4A
1505844477.4,14829,14.19,73394.0,0.11,-0.57,-0.57,0,*4B
1505844478.59,14830,14.19,73398.5,0.11,-0.61,-0.57,0,*46
1505844479.79,14831,14.19,73396.0,0.11,-0.57,-0.57,0,*42
1505844480.98,14832,14.19,73396.3,0.11,-0.61,-0.57,0,*44
1505844482.17,14833,14.19,73394.3,0.11,-0.61,-0.57,0,*45
1505844483.36,14834,14.19,73396.3,0.07,-0.65,-0.61,0,*74
1505844484.52,14835,14.19,73396.3,0.09,-0.61,-0.65,0,*7B
1505844485.72,14836,14.19,73396.8,0.11,-0.57,-0.57,0,*45
1505844486.9,14837,14.19,73396.8,0.11,-0.49,-0.61,0,*4E
1505844488.1,14838,14.19,73400.0,0.11,-0.57,-0.61,0,*4E
1505844489.28,14839,14.19,73396.0,0.11,-0.61,-0.61,0,*4A
1505844490.48,14840,14.19,73398.5,0.11,-0.57,-0.61,0,*41
1505844491.67,14841,14.19,73394.8,0.11,-0.57,-0.61,0,*40
1505844492.82,14842,14.19,73394.3,0.09,-0.61,-0.61,0,*7F
1505844493.98,14843,14.19,73392.5,0.09,-0.65,-0.61,0,*7A
1505844495.14,14844,14.19,73388.8,0.09,-0.61,-0.61,0,*79
1505844496.33,14845,14.19,73398.5,0.07,-0.65,-0.61,0,*72
1505844497.5,14846,14.19,73392.3,0.09,-0.65,-0.65,0,*7B
1505844498.65,14847,14.19,73392.8,0.09,-0.61,-0.61,0,*7A
1505844499.84,14848,14.19,73396.0,0.07,-0.61,-0.65,0,*7F